START_TIME,STEP,MOV.,P11,t_acc.,P23,t_acc.,P27,t_acc.,A4,t_acc.
1979-07-18 23:07:58.990 ,0,0,2.,4.8,0.,4.8,0.,4.8,0.,4.8
1979-07-18 23:08:03.790 ,0,0,0.,4.8,0.,4.8,0.,4.8,1.,4.8
1979-07-18 23:08:08.590 ,0,0,1.,4.8,0.,4.8,0.,4.8,0.,4.8
1979-07-18 23:08:13.390 ,0,0,0.,4.8,0.,4.8,0.,4.8,0.,4.8
1979-07-18 23:08:18.190 ,0,0,0.,4.8,0.,4.8,0.,4.8,0.,4.8
1979-07-18 23:08:22.990 ,0,0,0.,4.8,0.,4.8,0.,4.8,0.,4.8
1979-07-18 23:08:27.790 ,0,0,0.,4.8,0.,4.8,0.,4.8,0.,4.8
1979-07-18 23:08:32.590 ,0,0,0.,4.8,0.,4.8,0.,4.8,0.,4.8
1979-07-18 23:08:37.390 ,0,0,1.,4.8,0.,4.8,0.,4.8,0.,4.8
1979-07-18 23:08:42.190 ,0,0,2.,4.8,0.,4.8,0.,4.8,0.,4.8
1979-07-18 23:08:46.990 ,3,0,0.,4.8,0.,4.8,0.,4.8,0.,4.8
1979-07-18 23:08:51.790 ,3,0,1.,4.8,0.,4.8,0.,4.8,0.,4.8
1979-07-18 23:08:56.590 ,3,0,0.,4.8,0.,4.8,0.,4.8,0.,4.8
1979-07-18 23:09:01.390 ,3,0,0.,4.8,0.,4.8,0.,4.8,0.,4.8
1979-07-18 23:09:06.190 ,3,0,0.,4.8,0.,4.8,0.,4.8,0.,4.8
1979-07-18 23:09:10.990 ,3,0,1.,4.8,0.,4.8,0.,4.8,0.,4.8
1979-07-18 23:09:15.790 ,3,0,0.,4.8,0.,4.8,0.,4.8,0.,4.8
1979-07-18 23:09:20.590 ,3,0,2.,4.8,0.,4.8,0.,4.8,0.,4.8
1979-07-18 23:09:25.390 ,3,0,0.,4.8,0.,4.8,0.,4.8,0.,4.8
1979-07-18 23:09:30.190 ,3,0,0.,4.8,0.,4.8,0.,4.8,0.,4.8
1979-07-18 23:09:34.990 ,2,0,0.,4.8,0.,4.8,0.,4.8,0.,4.8
1979-07-18 23:09:39.790 ,2,0,0.,4.8,0.,4.8,0.,4.8,0.,4.8
1979-07-18 23:09:44.590 ,2,0,0.,4.8,0.,4.8,0.,4.8,0.,4.8
1979-07-18 23:09:49.390 ,2,0,0.,4.8,0.,4.8,0.,4.8,0.,4.8
1979-07-18 23:09:54.190 ,2,0,0.,4.8,0.,4.8,0.,4.8,0.,4.8
1979-07-18 23:09:58.990 ,2,0,0.,4.8,0.,4.8,0.,4.8,0.,4.8
1979-07-18 23:10:03.790 ,2,0,0.,4.8,0.,4.8,0.,4.8,0.,4.8
1979-07-18 23:10:08.590 ,2,0,0.,4.8,0.,4.8,0.,4.8,1.,4.8
1979-07-18 23:10:13.390 ,2,0,0.,4.8,0.,4.8,0.,4.8,0.,4.8
1979-07-18 23:10:18.190 ,2,0,0.,4.8,0.,4.8,0.,4.8,0.,4.8
1979-07-18 23:10:22.990 ,1,0,0.,4.8,0.,4.8,0.,4.8,0.,4.8
1979-07-18 23:10:27.790 ,1,0,1.,4.8,0.,4.8,0.,4.8,0.,4.8
1979-07-18 23:10:32.590 ,1,0,0.,4.8,0.,4.8,0.,4.8,0.,4.8
1979-07-18 23:10:37.390 ,1,0,1.,4.8,0.,4.8,0.,4.8,0.,4.8
1979-07-18 23:10:42.190 ,1,0,0.,4.8,0.,4.8,0.,4.8,0.,4.8
1979-07-18 23:10:46.990 ,1,0,0.,4.8,0.,4.8,0.,4.8,0.,4.8
1979-07-18 23:10:51.790 ,1,0,1.,4.8,0.,4.8,0.,4.8,0.,4.8
1979-07-18 23:10:56.590 ,1,0,0.,4.8,0.,4.8,0.,4.8,0.,4.8
1979-07-18 23:11:01.390 ,1,0,0.,4.8,0.,4.8,0.,4.8,1.,4.8
1979-07-18 23:11:06.190 ,1,0,1.,4.8,0.,4.8,0.,4.8,0.,4.8
1979-07-18 23:11:10.990 ,0,0,0.,4.8,0.,4.8,0.,4.8,0.,4.8
1979-07-18 23:11:15.790 ,0,0,0.,4.8,0.,4.8,0.,4.8,0.,4.8
1979-07-18 23:11:20.590 ,0,0,0.,4.8,0.,4.8,0.,4.8,0.,4.8
1979-07-18 23:11:25.390 ,0,0,0.,4.8,0.,4.8,0.,4.8,0.,4.8
1979-07-18 23:11:30.190 ,0,0,0.,4.8,0.,4.8,0.,4.8,0.,4.8
1979-07-18 23:11:34.990 ,0,0,0.,4.8,0.,4.8,0.,4.8,0.,4.8
1979-07-18 23:11:39.790 ,0,0,0.,4.8,0.,4.8,0.,4.8,0.,4.8
1979-07-18 23:11:44.590 ,0,0,0.,4.8,0.,4.8,0.,4.8,0.,4.8
1979-07-18 23:11:49.390 ,0,0,0.,4.8,0.,4.8,0.,4.8,0.,4.8
1979-07-18 23:11:54.190 ,0,0,1.,4.8,0.,4.8,0.,4.8,0.,4.8
1979-07-18 23:11:58.990 ,0,0,0.,4.8,0.,4.8,0.,4.8,0.,4.8
1979-07-18 23:12:03.790 ,0,0,0.,4.8,0.,4.8,0.,4.8,0.,4.8
1979-07-18 23:12:08.590 ,0,0,0.,4.8,0.,4.8,0.,4.8,0.,4.8
1979-07-18 23:12:13.390 ,0,0,0.,4.8,0.,4.8,0.,4.8,0.,4.8
1979-07-18 23:12:18.190 ,0,0,0.,4.8,0.,4.8,0.,4.8,0.,4.8
1979-07-18 23:12:22.990 ,0,0,0.,4.8,0.,4.8,0.,4.8,0.,4.8
1979-07-18 23:12:27.790 ,0,0,0.,4.8,0.,4.8,0.,4.8,0.,4.8
1979-07-18 23:12:32.590 ,0,0,0.,4.8,0.,4.8,0.,4.8,0.,4.8
1979-07-18 23:12:37.390 ,0,0,,0,,0,,0,,0
1979-07-18 23:12:42.190 ,0,0,,0,,0,,0,,0
1979-07-18 23:12:47.590 ,1,0,0.,4.8,0.,4.8,0.,4.8,0.,4.8
1979-07-18 23:12:52.390 ,1,0,0.,4.8,0.,4.8,0.,4.8,0.,4.8
1979-07-18 23:12:57.190 ,1,0,0.,4.8,0.,4.8,0.,4.8,0.,4.8
1979-07-18 23:13:01.990 ,1,0,1.,4.8,0.,4.8,0.,4.8,0.,4.8
1979-07-18 23:13:06.790 ,1,0,0.,4.8,0.,4.8,0.,4.8,0.,4.8
1979-07-18 23:13:10.990 ,1,0,0.,4.8,0.,4.8,0.,4.8,0.,4.8
1979-07-18 23:13:15.790 ,1,0,0.,4.8,0.,4.8,0.,4.8,0.,4.8
1979-07-18 23:13:20.590 ,1,0,0.,4.8,0.,4.8,0.,4.8,0.,4.8
1979-07-18 23:13:25.390 ,1,0,0.,4.8,0.,4.8,0.,4.8,0.,4.8
1979-07-18 23:13:30.190 ,1,0,0.,4.8,0.,4.8,0.,4.8,0.,4.8
1979-07-18 23:19:10.990 ,0,0,3.,4.8,0.,4.8,0.,4.8,0.,4.8
1979-07-18 23:19:15.790 ,0,0,0.,4.8,0.,4.8,0.,4.8,0.,4.8
1979-07-18 23:19:20.590 ,0,0,1.,4.8,0.,4.8,0.,4.8,0.,4.8
1979-07-18 23:19:25.390 ,0,0,0.,4.8,0.,4.8,0.,4.8,0.,4.8
1979-07-18 23:19:30.190 ,0,0,2.,4.8,0.,4.8,0.,4.8,0.,4.8
1979-07-18 23:19:34.990 ,0,0,0.,4.8,0.,4.8,0.,4.8,0.,4.8
1979-07-18 23:19:39.790 ,0,0,0.,4.8,0.,4.8,0.,4.8,1.,4.8
1979-07-18 23:19:44.590 ,0,0,0.,4.8,0.,4.8,0.,4.8,0.,4.8
1979-07-18 23:19:49.390 ,0,0,0.,4.8,0.,4.8,0.,4.8,0.,4.8
1979-07-18 23:19:54.190 ,0,0,0.,4.8,0.,4.8,0.,4.8,0.,4.8
1979-07-18 23:19:58.990 ,5,0,0.,4.8,0.,4.8,0.,4.8,0.,4.8
1979-07-18 23:20:03.790 ,5,0,0.,4.8,0.,4.8,0.,4.8,0.,4.8
1979-07-18 23:20:08.590 ,5,0,0.,4.8,0.,4.8,0.,4.8,0.,4.8
1979-07-18 23:20:13.390 ,5,0,1.,4.8,0.,4.8,0.,4.8,0.,4.8
1979-07-18 23:20:18.190 ,5,0,1.,4.8,0.,4.8,0.,4.8,0.,4.8
1979-07-18 23:20:22.990 ,5,0,0.,4.8,0.,4.8,0.,4.8,0.,4.8
1979-07-18 23:20:27.790 ,5,0,0.,4.8,0.,4.8,0.,4.8,0.,4.8
1979-07-18 23:20:32.590 ,5,0,1.,4.8,0.,4.8,0.,4.8,0.,4.8
1979-07-18 23:20:37.390 ,5,0,0.,4.8,0.,4.8,0.,4.8,0.,4.8
1979-07-18 23:20:42.190 ,5,0,0.,4.8,0.,4.8,0.,4.8,0.,4.8
1979-07-18 23:20:22.990 ,0,0,0.,4.8,0.,4.8,0.,4.8,0.,4.8
1979-07-18 23:20:27.790 ,0,0,0.,4.8,0.,4.8,0.,4.8,0.,4.8
1979-07-18 23:20:32.590 ,0,0,1.,4.8,0.,4.8,0.,4.8,0.,4.8
1979-07-18 23:20:37.390 ,0,0,0.,4.8,0.,4.8,0.,4.8,0.,4.8
1979-07-18 23:20:42.190 ,0,0,0.,4.8,0.,4.8,0.,4.8,0.,4.8
1979-07-18 23:20:22.990 ,0,0,0.,4.8,0.,4.8,0.,4.8,0.,4.8
1979-07-18 23:20:27.790 ,0,0,0.,4.8,0.,4.8,0.,4.8,0.,4.8
1979-07-18 23:20:32.590 ,0,0,1.,4.8,0.,4.8,0.,4.8,0.,4.8
1979-07-18 23:20:37.390 ,0,0,0.,4.8,0.,4.8,0.,4.8,0.,4.8
1979-07-18 23:20:42.190 ,0,0,0.,4.8,0.,4.8,0.,4.8,0.,4.8
1979-07-18 23:20:46.990 ,4,0,0.,4.8,0.,4.8,0.,4.8,0.,4.8
1979-07-18 23:20:51.790 ,4,0,0.,4.8,0.,4.8,0.,4.8,0.,4.8
1979-07-18 23:20:56.590 ,4,0,2.,4.8,0.,4.8,0.,4.8,1.,4.8
1979-07-18 23:21:01.390 ,4,0,0.,4.8,0.,4.8,0.,4.8,0.,4.8
1979-07-18 23:21:06.190 ,4,0,0.,4.8,0.,4.8,0.,4.8,0.,4.8
1979-07-18 23:21:10.990 ,4,0,0.,4.8,0.,4.8,0.,4.8,0.,4.8
1979-07-18 23:21:15.790 ,4,0,0.,4.8,0.,4.8,0.,4.8,0.,4.8
1979-07-18 23:21:20.590 ,4,0,0.,4.8,0.,4.8,0.,4.8,0.,4.8
1979-07-18 23:21:25.390 ,4,0,0.,4.8,0.,4.8,0.,4.8,0.,4.8
1979-07-18 23:21:30.190 ,4,0,1.,4.8,0.,4.8,0.,4.8,0.,4.8
1979-07-18 23:21:34.990 ,3,0,1.,4.8,0.,4.8,0.,4.8,0.,4.8
1979-07-18 23:21:39.790 ,3,0,0.,4.8,0.,4.8,0.,4.8,0.,4.8
1979-07-18 23:21:44.590 ,3,0,0.,4.8,0.,4.8,0.,4.8,0.,4.8
1979-07-18 23:21:49.390 ,3,0,1.,4.8,0.,4.8,0.,4.8,0.,4.8
1979-07-18 23:21:54.190 ,3,0,0.,4.8,0.,4.8,0.,4.8,0.,4.8
1979-07-18 23:21:58.990 ,3,0,0.,4.8,0.,4.8,0.,4.8,0.,4.8
1979-07-18 23:22:03.790 ,3,0,0.,4.8,0.,4.8,0.,4.8,0.,4.8
1979-07-18 23:22:08.590 ,3,0,1.,4.8,0.,4.8,0.,4.8,0.,4.8
1979-07-18 23:22:13.390 ,3,0,1.,4.8,0.,4.8,0.,4.8,0.,4.8
1979-07-18 23:22:18.190 ,3,0,0.,4.8,0.,4.8,0.,4.8,0.,4.8
1979-07-18 23:22:22.990 ,2,0,1.,4.8,0.,4.8,0.,4.8,0.,4.8
1979-07-18 23:22:27.790 ,2,0,0.,4.8,0.,4.8,0.,4.8,0.,4.8
1979-07-18 23:22:32.590 ,2,0,0.,4.8,0.,4.8,0.,4.8,0.,4.8
1979-07-18 23:22:37.390 ,2,0,,0,,0,,0,,0
1979-07-18 23:22:42.190 ,2,0,0.,4.8,0.,4.8,0.,4.8,0.,4.8
1979-07-18 23:22:46.990 ,2,0,0.,4.8,0.,4.8,0.,4.8,0.,4.8
1979-07-18 23:22:51.790 ,2,0,0.,4.8,0.,4.8,0.,4.8,0.,4.8
1979-07-18 23:22:56.590 ,2,0,0.,4.8,0.,4.8,0.,4.8,0.,4.8
1979-07-18 23:23:01.390 ,2,0,0.,4.8,0.,4.8,0.,4.8,0.,4.8
1979-07-18 23:23:06.190 ,2,0,0.,4.8,0.,4.8,0.,4.8,0.,4.8
1979-07-18 23:23:10.990 ,1,0,1.,4.8,0.,4.8,0.,4.8,0.,4.8
1979-07-18 23:23:15.790 ,1,0,0.,4.8,0.,4.8,0.,4.8,1.,4.8
1979-07-18 23:23:20.590 ,1,0,0.,4.8,0.,4.8,0.,4.8,0.,4.8
1979-07-18 23:23:25.390 ,1,0,1.,4.8,0.,4.8,0.,4.8,0.,4.8
1979-07-18 23:23:30.190 ,1,0,0.,4.8,0.,4.8,0.,4.8,0.,4.8
1979-07-18 23:23:34.990 ,1,0,0.,4.8,0.,4.8,0.,4.8,0.,4.8
1979-07-18 23:23:39.790 ,1,0,0.,4.8,0.,4.8,0.,4.8,0.,4.8
1979-07-18 23:23:44.590 ,1,0,0.,4.8,0.,4.8,0.,4.8,0.,4.8
1979-07-18 23:23:49.390 ,1,0,1.,4.8,0.,4.8,0.,4.8,0.,4.8
1979-07-18 23:23:54.190 ,1,0,0.,4.8,0.,4.8,0.,4.8,0.,4.8
1979-07-18 23:23:58.990 ,0,0,0.,4.8,0.,4.8,0.,4.8,0.,4.8
1979-07-18 23:24:03.790 ,0,0,1.,4.8,0.,4.8,0.,4.8,0.,4.8
1979-07-18 23:24:08.590 ,0,0,0.,4.8,0.,4.8,0.,4.8,0.,4.8
1979-07-18 23:24:13.390 ,0,0,0.,4.8,0.,4.8,0.,4.8,0.,4.8
1979-07-18 23:24:18.190 ,0,0,0.,4.8,0.,4.8,0.,4.8,0.,4.8
1979-07-18 23:24:22.990 ,0,0,0.,4.8,0.,4.8,0.,4.8,0.,4.8
1979-07-18 23:24:27.790 ,0,0,0.,4.8,0.,4.8,0.,4.8,0.,4.8
1979-07-18 23:24:32.590 ,0,0,1.,4.8,0.,4.8,0.,4.8,0.,4.8
1979-07-18 23:24:37.390 ,0,0,0.,4.8,0.,4.8,0.,4.8,0.,4.8
1979-07-18 23:24:42.190 ,0,0,0.,4.8,0.,4.8,0.,4.8,0.,4.8
1979-07-18 23:24:46.990 ,0,0,0.,4.8,0.,4.8,0.,4.8,0.,4.8
1979-07-18 23:24:51.790 ,0,0,0.,4.8,0.,4.8,0.,4.8,0.,4.8
1979-07-18 23:24:56.590 ,0,0,1.,4.8,0.,4.8,0.,4.8,0.,4.8
1979-07-18 23:25:01.390 ,0,0,0.,4.8,0.,4.8,0.,4.8,0.,4.8
1979-07-18 23:25:06.190 ,0,0,0.,4.8,0.,4.8,0.,4.8,0.,4.8
1979-07-18 23:25:10.990 ,0,0,0.,4.8,0.,4.8,0.,4.8,0.,4.8
1979-07-18 23:25:15.790 ,0,0,0.,4.8,0.,4.8,0.,4.8,0.,4.8
1979-07-18 23:25:20.590 ,0,0,1.,4.8,0.,4.8,0.,4.8,0.,4.8
1979-07-18 23:25:25.390 ,0,0,0.,4.8,0.,4.8,0.,4.8,0.,4.8
1979-07-18 23:25:30.190 ,0,0,0.,4.8,0.,4.8,0.,4.8,0.,4.8
1979-07-18 23:25:34.990 ,1,0,0.,4.8,0.,4.8,0.,4.8,0.,4.8
1979-07-18 23:25:39.790 ,1,0,0.,4.8,0.,4.8,0.,4.8,0.,4.8
1979-07-18 23:25:44.590 ,1,0,0.,4.8,0.,4.8,0.,4.8,0.,4.8
1979-07-18 23:25:49.390 ,1,0,0.,4.8,0.,4.8,0.,4.8,0.,4.8
1979-07-18 23:25:54.190 ,1,0,0.,4.8,0.,4.8,0.,4.8,0.,4.8
1979-07-18 23:25:58.990 ,1,0,0.,4.8,0.,4.8,0.,4.8,0.,4.8
1979-07-18 23:26:03.790 ,1,0,0.,4.8,0.,4.8,0.,4.8,0.,4.8
1979-07-18 23:26:08.590 ,1,0,1.,4.8,0.,4.8,0.,4.8,0.,4.8
1979-07-18 23:26:13.390 ,1,0,1.,4.8,0.,4.8,0.,4.8,0.,4.8
1979-07-18 23:26:18.190 ,1,0,0.,4.8,0.,4.8,0.,4.8,0.,4.8
1979-07-18 23:26:22.990 ,2,0,0.,4.8,0.,4.8,0.,4.8,1.,4.8
1979-07-18 23:26:27.790 ,2,0,0.,4.8,0.,4.8,0.,4.8,0.,4.8
1979-07-18 23:26:32.590 ,2,0,1.,4.8,0.,4.8,0.,4.8,1.,4.8
1979-07-18 23:26:37.390 ,2,0,0.,4.8,0.,4.8,0.,4.8,0.,4.8
1979-07-18 23:26:42.190 ,2,0,0.,4.8,0.,4.8,0.,4.8,0.,4.8
1979-07-18 23:26:46.990 ,2,0,0.,4.8,0.,4.8,0.,4.8,0.,4.8
1979-07-18 23:26:51.790 ,2,0,1.,4.8,0.,4.8,0.,4.8,0.,4.8
1979-07-18 23:26:56.590 ,2,0,0.,4.8,0.,4.8,0.,4.8,0.,4.8
1979-07-18 23:27:01.390 ,2,0,0.,4.8,0.,4.8,0.,4.8,0.,4.8
1979-07-18 23:27:06.190 ,2,0,2.,4.8,0.,4.8,0.,4.8,0.,4.8
1979-07-18 23:27:10.990 ,3,0,0.,4.8,0.,4.8,0.,4.8,0.,4.8
1979-07-18 23:27:15.790 ,3,0,0.,4.8,0.,4.8,0.,4.8,0.,4.8
1979-07-18 23:27:20.590 ,3,0,0.,4.8,0.,4.8,0.,4.8,0.,4.8
1979-07-18 23:27:25.390 ,3,0,0.,4.8,0.,4.8,0.,4.8,0.,4.8
1979-07-18 23:27:30.190 ,3,0,0.,4.8,0.,4.8,0.,4.8,0.,4.8
1979-07-18 23:27:34.990 ,3,0,0.,4.8,0.,4.8,0.,4.8,0.,4.8
1979-07-18 23:27:39.790 ,3,0,0.,4.8,0.,4.8,0.,4.8,0.,4.8
1979-07-18 23:27:44.590 ,3,0,1.,4.8,0.,4.8,0.,4.8,0.,4.8
1979-07-18 23:27:49.390 ,3,0,0.,4.8,0.,4.8,0.,4.8,0.,4.8
1979-07-18 23:27:54.190 ,3,0,0.,4.8,0.,4.8,0.,4.8,0.,4.8
1979-07-18 23:27:58.990 ,4,0,0.,4.8,0.,4.8,0.,4.8,0.,4.8
1979-07-18 23:28:03.790 ,4,0,0.,4.8,0.,4.8,0.,4.8,1.,4.8
1979-07-18 23:28:08.590 ,4,0,0.,4.8,0.,4.8,0.,4.8,0.,4.8
1979-07-18 23:28:13.390 ,4,0,0.,4.8,0.,4.8,0.,4.8,0.,4.8
1979-07-18 23:28:18.190 ,4,0,0.,4.8,0.,4.8,0.,4.8,0.,4.8
1979-07-18 23:28:22.990 ,4,0,1.,4.8,0.,4.8,0.,4.8,0.,4.8
1979-07-18 23:28:27.790 ,4,0,1.,4.8,0.,4.8,0.,4.8,0.,4.8
1979-07-18 23:28:32.590 ,4,0,0.,4.8,0.,4.8,0.,4.8,0.,4.8
1979-07-18 23:28:37.390 ,4,0,0.,4.8,0.,4.8,0.,4.8,0.,4.8
1979-07-18 23:28:42.190 ,4,0,0.,4.8,0.,4.8,0.,4.8,0.,4.8
1979-07-18 23:28:46.990 ,5,0,0.,4.8,0.,4.8,0.,4.8,0.,4.8
1979-07-18 23:28:51.790 ,5,0,2.,4.8,0.,4.8,0.,4.8,0.,4.8
1979-07-18 23:28:56.590 ,5,0,0.,4.8,0.,4.8,0.,4.8,1.,4.8
1979-07-18 23:29:01.390 ,5,0,0.,4.8,0.,4.8,0.,4.8,1.,4.8
1979-07-18 23:29:06.190 ,5,0,0.,4.8,0.,4.8,0.,4.8,0.,4.8
1979-07-18 23:29:10.990 ,5,0,1.,4.8,0.,4.8,0.,4.8,0.,4.8
1979-07-18 23:29:15.790 ,5,0,1.,4.8,0.,4.8,0.,4.8,0.,4.8
1979-07-18 23:29:20.590 ,5,0,0.,4.8,0.,4.8,0.,4.8,0.,4.8
1979-07-18 23:29:25.390 ,5,0,0.,4.8,0.,4.8,0.,4.8,0.,4.8
1979-07-18 23:29:30.190 ,5,0,1.,4.8,0.,4.8,0.,4.8,0.,4.8
1979-07-18 23:29:34.990 ,6,0,0.,4.8,0.,4.8,0.,4.8,0.,4.8
1979-07-18 23:29:39.790 ,6,0,1.,4.8,0.,4.8,0.,4.8,0.,4.8
1979-07-18 23:29:44.590 ,6,0,1.,4.8,0.,4.8,0.,4.8,0.,4.8
1979-07-18 23:29:49.390 ,6,0,0.,4.8,0.,4.8,0.,4.8,0.,4.8
1979-07-18 23:29:54.190 ,6,0,0.,4.8,0.,4.8,0.,4.8,0.,4.8
1979-07-18 23:29:58.990 ,6,0,0.,4.8,0.,4.8,0.,4.8,0.,4.8
1979-07-18 23:30:03.790 ,6,0,0.,4.8,0.,4.8,0.,4.8,0.,4.8
1979-07-18 23:30:08.590 ,6,0,0.,4.8,0.,4.8,0.,4.8,0.,4.8
1979-07-18 23:30:13.390 ,6,0,0.,4.8,0.,4.8,0.,4.8,0.,4.8
1979-07-18 23:30:18.190 ,6,0,1.,4.8,0.,4.8,0.,4.8,0.,4.8
1979-07-18 23:31:10.990 ,0,0,0.,4.8,0.,4.8,0.,4.8,0.,4.8
1979-07-18 23:31:15.790 ,0,0,0.,4.8,0.,4.8,0.,4.8,0.,4.8
1979-07-18 23:31:20.590 ,0,0,0.,4.8,0.,4.8,0.,4.8,0.,4.8
1979-07-18 23:31:25.390 ,0,0,0.,4.8,0.,4.8,0.,4.8,0.,4.8
1979-07-18 23:31:30.190 ,0,0,1.,4.8,0.,4.8,0.,4.8,0.,4.8
1979-07-18 23:31:34.990 ,0,1,0.,4.8,0.,4.8,0.,4.8,0.,4.8
1979-07-18 23:31:39.790 ,0,1,1.,4.8,0.,4.8,0.,4.8,0.,4.8
1979-07-18 23:31:44.590 ,0,1,0.,4.8,0.,4.8,0.,4.8,0.,4.8
1979-07-18 23:31:49.390 ,0,1,0.,4.8,0.,4.8,0.,4.8,0.,4.8
1979-07-18 23:31:54.190 ,0,1,0.,4.8,0.,4.8,0.,4.8,0.,4.8
1979-07-18 23:31:58.990 ,4,1,0.,4.8,0.,4.8,0.,4.8,0.,4.8
1979-07-18 23:32:03.790 ,4,1,0.,4.8,0.,4.8,0.,4.8,0.,4.8
1979-07-18 23:32:08.590 ,4,1,1.,4.8,0.,4.8,0.,4.8,0.,4.8
1979-07-18 23:32:13.390 ,4,1,0.,4.8,0.,4.8,0.,4.8,0.,4.8
1979-07-18 23:32:18.190 ,4,1,0.,4.8,0.,4.8,0.,4.8,0.,4.8
1979-07-18 23:32:22.990 ,7,1,0.,4.8,0.,4.8,0.,4.8,0.,4.8
1979-07-18 23:32:27.790 ,7,1,1.,4.8,0.,4.8,0.,4.8,0.,4.8
1979-07-18 23:32:32.590 ,7,1,0.,4.8,0.,4.8,0.,4.8,0.,4.8
1979-07-18 23:32:37.390 ,7,1,1.,4.8,0.,4.8,0.,4.8,0.,4.8
1979-07-18 23:32:42.190 ,7,1,0.,4.8,0.,4.8,0.,4.8,0.,4.8
1979-07-18 23:32:46.990 ,3,1,0.,4.8,0.,4.8,0.,4.8,0.,4.8
1979-07-18 23:32:51.790 ,3,1,0.,4.8,0.,4.8,0.,4.8,0.,4.8
1979-07-18 23:32:56.590 ,3,1,0.,4.8,0.,4.8,0.,4.8,0.,4.8
1979-07-18 23:33:01.390 ,3,1,0.,4.8,0.,4.8,0.,4.8,0.,4.8
1979-07-18 23:33:06.190 ,3,1,0.,4.8,0.,4.8,0.,4.8,0.,4.8
1979-07-18 23:33:10.990 ,0,1,1.,4.8,0.,4.8,0.,4.8,1.,4.8
1979-07-18 23:33:15.790 ,0,1,1.,4.8,0.,4.8,0.,4.8,0.,4.8
1979-07-18 23:33:20.590 ,0,1,1.,4.8,0.,4.8,0.,4.8,0.,4.8
1979-07-18 23:33:25.390 ,0,1,0.,4.8,0.,4.8,0.,4.8,0.,4.8
1979-07-18 23:33:30.190 ,0,1,1.,4.8,0.,4.8,0.,4.8,0.,4.8
1979-07-18 23:33:34.990 ,4,1,0.,4.8,0.,4.8,0.,4.8,0.,4.8
1979-07-18 23:33:39.790 ,4,1,0.,4.8,0.,4.8,0.,4.8,0.,4.8
1979-07-18 23:33:44.590 ,4,1,2.,4.8,0.,4.8,0.,4.8,0.,4.8
1979-07-18 23:33:49.390 ,4,1,0.,4.8,0.,4.8,0.,4.8,0.,4.8
1979-07-18 23:33:54.190 ,4,1,0.,4.8,0.,4.8,0.,4.8,1.,4.8
1979-07-18 23:33:58.990 ,7,1,0.,4.8,0.,4.8,0.,4.8,0.,4.8
1979-07-18 23:34:03.790 ,7,1,2.,4.8,0.,4.8,0.,4.8,0.,4.8
1979-07-18 23:34:08.590 ,7,1,0.,4.8,0.,4.8,0.,4.8,0.,4.8
1979-07-18 23:34:13.390 ,7,1,1.,4.8,0.,4.8,0.,4.8,0.,4.8
1979-07-18 23:34:18.190 ,7,1,0.,4.8,0.,4.8,0.,4.8,0.,4.8
1979-07-18 23:34:22.990 ,3,1,0.,4.8,0.,4.8,0.,4.8,0.,4.8
1979-07-18 23:34:27.790 ,3,1,0.,4.8,0.,4.8,0.,4.8,0.,4.8
1979-07-18 23:34:32.590 ,3,1,2.,4.8,0.,4.8,0.,4.8,0.,4.8
1979-07-18 23:34:37.390 ,3,1,1.,4.8,0.,4.8,0.,4.8,0.,4.8
1979-07-18 23:34:42.190 ,3,1,0.,4.8,0.,4.8,0.,4.8,0.,4.8
1979-07-18 23:34:46.990 ,0,1,0.,4.8,0.,4.8,0.,4.8,0.,4.8
1979-07-18 23:34:51.790 ,0,1,0.,4.8,0.,4.8,0.,4.8,0.,4.8
1979-07-18 23:34:56.590 ,0,1,1.,4.8,0.,4.8,0.,4.8,0.,4.8
1979-07-18 23:35:01.390 ,0,1,0.,4.8,0.,4.8,0.,4.8,0.,4.8
1979-07-18 23:35:06.190 ,0,1,2.,4.8,0.,4.8,0.,4.8,0.,4.8
1979-07-18 23:35:10.990 ,4,1,1.,4.8,0.,4.8,0.,4.8,0.,4.8
1979-07-18 23:35:15.790 ,4,1,2.,4.8,0.,4.8,0.,4.8,0.,4.8
1979-07-18 23:35:20.590 ,4,1,2.,4.8,0.,4.8,0.,4.8,0.,4.8
1979-07-18 23:35:25.390 ,4,1,0.,4.8,0.,4.8,0.,4.8,0.,4.8
1979-07-18 23:35:30.190 ,4,1,0.,4.8,0.,4.8,0.,4.8,0.,4.8
1979-07-18 23:35:34.990 ,7,1,0.,4.8,0.,4.8,0.,4.8,0.,4.8
1979-07-18 23:35:39.790 ,7,1,1.,4.8,0.,4.8,0.,4.8,0.,4.8
1979-07-18 23:35:44.590 ,7,1,0.,4.8,0.,4.8,0.,4.8,0.,4.8
1979-07-18 23:35:49.390 ,7,1,1.,4.8,0.,4.8,0.,4.8,0.,4.8
1979-07-18 23:35:54.190 ,7,1,1.,4.8,0.,4.8,0.,4.8,0.,4.8
1979-07-18 23:35:58.990 ,3,1,0.,4.8,0.,4.8,0.,4.8,0.,4.8
1979-07-18 23:36:03.790 ,3,1,0.,4.8,0.,4.8,0.,4.8,0.,4.8
1979-07-18 23:36:08.590 ,3,1,1.,4.8,0.,4.8,0.,4.8,0.,4.8
1979-07-18 23:36:13.390 ,3,1,0.,4.8,0.,4.8,0.,4.8,0.,4.8
1979-07-18 23:36:18.190 ,3,1,1.,4.8,0.,4.8,0.,4.8,0.,4.8
1979-07-18 23:36:22.990 ,0,1,0.,4.8,0.,4.8,0.,4.8,0.,4.8
1979-07-18 23:36:27.790 ,0,1,0.,4.8,0.,4.8,0.,4.8,0.,4.8
1979-07-18 23:36:32.590 ,0,1,0.,4.8,0.,4.8,0.,4.8,0.,4.8
1979-07-18 23:36:37.390 ,0,1,2.,4.8,0.,4.8,0.,4.8,0.,4.8
1979-07-18 23:36:42.190 ,0,1,0.,4.8,0.,4.8,0.,4.8,0.,4.8
1979-07-18 23:36:46.990 ,4,1,1.,4.8,0.,4.8,0.,4.8,0.,4.8
1979-07-18 23:36:51.790 ,4,1,2.,4.8,0.,4.8,0.,4.8,0.,4.8
1979-07-18 23:36:56.590 ,4,1,1.,4.8,0.,4.8,0.,4.8,1.,4.8
1979-07-18 23:37:01.390 ,4,1,0.,4.8,0.,4.8,0.,4.8,0.,4.8
1979-07-18 23:37:06.190 ,4,1,0.,4.8,0.,4.8,0.,4.8,0.,4.8
1979-07-18 23:37:10.990 ,7,1,0.,4.8,0.,4.8,0.,4.8,0.,4.8
1979-07-18 23:37:15.790 ,7,1,0.,4.8,0.,4.8,0.,4.8,0.,4.8
1979-07-18 23:37:20.590 ,7,1,0.,4.8,0.,4.8,0.,4.8,0.,4.8
1979-07-18 23:37:25.390 ,7,1,0.,4.8,0.,4.8,0.,4.8,0.,4.8
1979-07-18 23:37:30.190 ,7,1,0.,4.8,0.,4.8,0.,4.8,0.,4.8
1979-07-18 23:37:34.990 ,3,1,0.,4.8,0.,4.8,0.,4.8,0.,4.8
1979-07-18 23:37:39.790 ,3,1,1.,4.8,0.,4.8,0.,4.8,2.,4.8
1979-07-18 23:37:44.590 ,3,1,0.,4.8,0.,4.8,0.,4.8,0.,4.8
1979-07-18 23:37:49.390 ,3,1,1.,4.8,0.,4.8,0.,4.8,0.,4.8
1979-07-18 23:37:54.190 ,3,1,0.,4.8,0.,4.8,0.,4.8,0.,4.8
1979-07-18 23:37:58.990 ,0,1,1.,4.8,0.,4.8,0.,4.8,0.,4.8
1979-07-18 23:38:03.790 ,0,1,1.,4.8,0.,4.8,0.,4.8,0.,4.8
1979-07-18 23:38:08.590 ,0,1,0.,4.8,0.,4.8,0.,4.8,0.,4.8
1979-07-18 23:38:13.390 ,0,1,1.,4.8,0.,4.8,0.,4.8,0.,4.8
1979-07-18 23:38:18.190 ,0,1,0.,4.8,0.,4.8,0.,4.8,0.,4.8
1979-07-18 23:38:22.990 ,4,1,0.,4.8,0.,4.8,0.,4.8,0.,4.8
1979-07-18 23:38:27.790 ,4,1,0.,4.8,0.,4.8,0.,4.8,0.,4.8
1979-07-18 23:38:32.590 ,4,1,0.,4.8,0.,4.8,0.,4.8,0.,4.8
1979-07-18 23:38:37.390 ,4,1,1.,4.8,0.,4.8,0.,4.8,0.,4.8
1979-07-18 23:38:42.190 ,4,1,1.,4.8,0.,4.8,0.,4.8,0.,4.8
1979-07-18 23:38:46.990 ,7,1,0.,4.8,0.,4.8,0.,4.8,0.,4.8
1979-07-18 23:38:51.790 ,7,1,0.,4.8,0.,4.8,0.,4.8,0.,4.8
1979-07-18 23:38:56.590 ,7,1,0.,4.8,0.,4.8,0.,4.8,0.,4.8
1979-07-18 23:39:01.390 ,7,1,1.,4.8,0.,4.8,0.,4.8,0.,4.8
1979-07-18 23:39:06.190 ,7,1,0.,4.8,0.,4.8,0.,4.8,0.,4.8
1979-07-18 23:39:10.990 ,3,1,1.,4.8,0.,4.8,0.,4.8,0.,4.8
1979-07-18 23:39:15.790 ,3,1,0.,4.8,0.,4.8,0.,4.8,0.,4.8
1979-07-18 23:39:20.590 ,3,1,0.,4.8,0.,4.8,0.,4.8,0.,4.8
1979-07-18 23:39:25.390 ,3,1,0.,4.8,0.,4.8,0.,4.8,1.,4.8
1979-07-18 23:39:30.190 ,3,1,0.,4.8,0.,4.8,0.,4.8,0.,4.8
1979-07-18 23:39:34.990 ,0,1,1.,4.8,0.,4.8,0.,4.8,0.,4.8
1979-07-18 23:39:39.790 ,0,1,0.,4.8,0.,4.8,0.,4.8,0.,4.8
1979-07-18 23:39:44.590 ,0,1,0.,4.8,0.,4.8,0.,4.8,1.,4.8
1979-07-18 23:39:49.390 ,0,1,0.,4.8,0.,4.8,0.,4.8,0.,4.8
1979-07-18 23:39:54.190 ,0,1,0.,4.8,0.,4.8,0.,4.8,0.,4.8
1979-07-18 23:39:58.990 ,4,1,0.,4.8,0.,4.8,0.,4.8,0.,4.8
1979-07-18 23:40:03.790 ,4,1,1.,4.8,0.,4.8,0.,4.8,0.,4.8
1979-07-18 23:40:08.590 ,4,1,1.,4.8,0.,4.8,0.,4.8,0.,4.8
1979-07-18 23:40:13.390 ,4,1,2.,4.8,0.,4.8,0.,4.8,0.,4.8
1979-07-18 23:40:18.190 ,4,1,2.,4.8,0.,4.8,0.,4.8,0.,4.8
1979-07-18 23:40:22.990 ,7,1,0.,4.8,0.,4.8,0.,4.8,0.,4.8
1979-07-18 23:40:27.790 ,7,1,0.,4.8,0.,4.8,0.,4.8,0.,4.8
1979-07-18 23:40:32.590 ,7,1,2.,4.8,0.,4.8,0.,4.8,0.,4.8
1979-07-18 23:40:37.390 ,7,1,0.,4.8,0.,4.8,0.,4.8,0.,4.8
1979-07-18 23:40:42.190 ,7,1,0.,4.8,0.,4.8,0.,4.8,0.,4.8
1979-07-18 23:40:46.990 ,3,1,0.,4.8,0.,4.8,0.,4.8,0.,4.8
1979-07-18 23:40:51.790 ,3,1,0.,4.8,0.,4.8,0.,4.8,0.,4.8
1979-07-18 23:40:56.590 ,3,1,0.,4.8,0.,4.8,0.,4.8,0.,4.8
1979-07-18 23:41:01.390 ,3,1,1.,4.8,0.,4.8,0.,4.8,0.,4.8
1979-07-18 23:41:06.190 ,3,1,1.,4.8,0.,4.8,0.,4.8,0.,4.8
1979-07-18 23:41:10.990 ,0,1,0.,4.8,0.,4.8,0.,4.8,0.,4.8
1979-07-18 23:41:15.790 ,0,1,1.,4.8,0.,4.8,0.,4.8,0.,4.8
1979-07-18 23:41:20.590 ,0,1,0.,4.8,0.,4.8,0.,4.8,0.,4.8
1979-07-18 23:41:25.390 ,0,1,2.,4.8,0.,4.8,0.,4.8,0.,4.8
1979-07-18 23:41:30.190 ,0,1,0.,4.8,0.,4.8,0.,4.8,1.,4.8
1979-07-18 23:41:34.990 ,0,0,1.,4.8,0.,4.8,0.,4.8,0.,4.8
1979-07-18 23:41:39.790 ,0,0,1.,4.8,0.,4.8,0.,4.8,0.,4.8
1979-07-18 23:41:44.590 ,0,0,1.,4.8,0.,4.8,0.,4.8,0.,4.8
1979-07-18 23:41:49.390 ,0,0,2.,4.8,0.,4.8,0.,4.8,0.,4.8
1979-07-18 23:41:54.190 ,0,0,1.,4.8,0.,4.8,0.,4.8,0.,4.8
1979-07-18 23:41:58.990 ,0,0,1.,4.8,0.,4.8,0.,4.8,0.,4.8
1979-07-18 23:42:03.790 ,0,0,0.,4.8,0.,4.8,0.,4.8,0.,4.8
1979-07-18 23:42:08.590 ,0,0,0.,4.8,0.,4.8,0.,4.8,0.,4.8
1979-07-18 23:42:13.390 ,0,0,1.,4.8,0.,4.8,0.,4.8,0.,4.8
1979-07-18 23:42:18.190 ,0,0,0.,4.8,0.,4.8,0.,4.8,0.,4.8
1979-07-18 23:42:22.990 ,5,0,0.,4.8,0.,4.8,0.,4.8,0.,4.8
1979-07-18 23:42:27.790 ,5,0,1.,4.8,0.,4.8,0.,4.8,0.,4.8
1979-07-18 23:42:32.590 ,5,0,0.,4.8,0.,4.8,0.,4.8,0.,4.8
1979-07-18 23:42:37.390 ,5,0,0.,4.8,0.,4.8,0.,4.8,0.,4.8
1979-07-18 23:42:42.190 ,5,0,0.,4.8,0.,4.8,0.,4.8,0.,4.8
1979-07-18 23:42:46.990 ,5,0,1.,4.8,0.,4.8,0.,4.8,0.,4.8
1979-07-18 23:42:51.790 ,5,0,0.,4.8,0.,4.8,0.,4.8,0.,4.8
1979-07-18 23:42:56.590 ,5,0,0.,4.8,0.,4.8,0.,4.8,0.,4.8
1979-07-18 23:43:01.390 ,5,0,0.,4.8,0.,4.8,0.,4.8,0.,4.8
1979-07-18 23:43:06.190 ,5,0,0.,4.8,0.,4.8,0.,4.8,0.,4.8
1979-07-18 23:43:10.990 ,4,0,0.,4.8,0.,4.8,0.,4.8,1.,4.8
1979-07-18 23:43:15.790 ,4,0,0.,4.8,0.,4.8,0.,4.8,0.,4.8
1979-07-18 23:43:20.590 ,4,0,1.,4.8,0.,4.8,0.,4.8,0.,4.8
1979-07-18 23:43:25.390 ,4,0,1.,4.8,0.,4.8,0.,4.8,0.,4.8
1979-07-18 23:43:30.190 ,4,0,0.,4.8,0.,4.8,0.,4.8,0.,4.8
1979-07-18 23:43:34.990 ,4,0,0.,4.8,0.,4.8,0.,4.8,0.,4.8
1979-07-18 23:43:39.790 ,4,0,0.,4.8,0.,4.8,0.,4.8,0.,4.8
1979-07-18 23:43:44.590 ,4,0,0.,4.8,0.,4.8,0.,4.8,0.,4.8
1979-07-18 23:43:49.390 ,4,0,0.,4.8,0.,4.8,0.,4.8,0.,4.8
1979-07-18 23:43:54.190 ,4,0,1.,4.8,0.,4.8,0.,4.8,0.,4.8
1979-07-18 23:43:58.990 ,3,0,0.,4.8,0.,4.8,0.,4.8,0.,4.8
1979-07-18 23:44:03.790 ,3,0,0.,4.8,0.,4.8,0.,4.8,0.,4.8
1979-07-18 23:44:08.590 ,3,0,0.,4.8,0.,4.8,0.,4.8,0.,4.8
1979-07-18 23:44:13.390 ,3,0,0.,4.8,0.,4.8,0.,4.8,0.,4.8
1979-07-18 23:44:18.190 ,3,0,0.,4.8,0.,4.8,0.,4.8,0.,4.8
1979-07-18 23:44:22.990 ,3,0,0.,4.8,0.,4.8,0.,4.8,0.,4.8
1979-07-18 23:44:27.790 ,3,0,0.,4.8,0.,4.8,0.,4.8,0.,4.8
1979-07-18 23:44:32.590 ,3,0,1.,4.8,0.,4.8,0.,4.8,0.,4.8
1979-07-18 23:44:37.390 ,3,0,0.,4.8,0.,4.8,0.,4.8,0.,4.8
1979-07-18 23:44:42.190 ,3,0,0.,4.8,0.,4.8,0.,4.8,0.,4.8
1979-07-18 23:44:46.990 ,2,0,2.,4.8,0.,4.8,0.,4.8,0.,4.8
1979-07-18 23:44:51.790 ,2,0,3.,4.8,0.,4.8,0.,4.8,0.,4.8
1979-07-18 23:44:56.590 ,2,0,0.,4.8,0.,4.8,0.,4.8,0.,4.8
1979-07-18 23:45:01.390 ,2,0,1.,4.8,0.,4.8,0.,4.8,0.,4.8
1979-07-18 23:45:06.190 ,2,0,1.,4.8,0.,4.8,0.,4.8,0.,4.8
1979-07-18 23:45:10.990 ,2,0,0.,4.8,0.,4.8,0.,4.8,0.,4.8
1979-07-18 23:45:15.790 ,2,0,1.,4.8,0.,4.8,0.,4.8,1.,4.8
1979-07-18 23:45:20.590 ,2,0,0.,4.8,0.,4.8,0.,4.8,0.,4.8
1979-07-18 23:45:25.390 ,2,0,0.,4.8,0.,4.8,0.,4.8,0.,4.8
1979-07-18 23:45:30.190 ,2,0,0.,4.8,0.,4.8,0.,4.8,0.,4.8
1979-07-18 23:45:34.990 ,1,0,1.,4.8,0.,4.8,0.,4.8,0.,4.8
1979-07-18 23:45:39.790 ,1,0,0.,4.8,0.,4.8,0.,4.8,0.,4.8
1979-07-18 23:45:44.590 ,1,0,0.,4.8,0.,4.8,0.,4.8,0.,4.8
1979-07-18 23:45:49.390 ,1,0,1.,4.8,0.,4.8,0.,4.8,0.,4.8
1979-07-18 23:45:54.190 ,1,0,0.,4.8,0.,4.8,0.,4.8,1.,4.8
1979-07-18 23:45:58.990 ,1,0,0.,4.8,0.,4.8,0.,4.8,1.,4.8
1979-07-18 23:46:03.790 ,1,0,2.,4.8,0.,4.8,0.,4.8,0.,4.8
1979-07-18 23:46:08.590 ,1,0,0.,4.8,0.,4.8,0.,4.8,0.,4.8
1979-07-18 23:46:13.390 ,1,0,0.,4.8,0.,4.8,0.,4.8,0.,4.8
1979-07-18 23:46:18.190 ,1,0,0.,4.8,0.,4.8,0.,4.8,0.,4.8
1979-07-18 23:46:22.990 ,0,0,2.,4.8,0.,4.8,0.,4.8,0.,4.8
1979-07-18 23:46:27.790 ,0,0,0.,4.8,0.,4.8,0.,4.8,0.,4.8
1979-07-18 23:46:32.590 ,0,0,1.,4.8,0.,4.8,0.,4.8,0.,4.8